Vertical_Velocity
0 1 1 1 1 1 -2 -1 -1 -3 -3 -1 -2 -2 1 6 7 4 -0 -1 -2 -2 -4 -7 -8 -9 -9 -9 -9 -7 -5 -2 -0 1 1 1 0 -0 -1 -3 -3 -3 -2 0 2 3 3 2 2 2 2 1 -0 -1 -2 -2 -1 2 5 5 4 2 -0 -1 -0 1 3 4 3 3 3 3 5 9 14 17 15 12 8 3 -0 -3 -6 -9 -10 -11
1 3 2 3 3 2 -2 0 2 2 2 2 1 -0 -0 3 4 3 -0 -2 -2 -2 -3 -6 -7 -7 -7 -8 -8 -8 -6 -3 -0 1 1 1 1 1 0 -1 -3 -4 -3 -1 1 2 3 3 2 2 2 1 -0 -1 -1 -2 -1 1 4 6 6 4 2 -0 -1 0 2 2 2 2 2 3 4 4 6 10 13 14 14 10 6 1 -2 -5 -7 -8
1 1 -1 1 3 3 -0 -0 1 2 4 3 2 1 0 0 -0 -0 -0 -2 -2 -1 -2 -4 -5 -5 -6 -7 -7 -7 -6 -4 -1 -0 0 0 1 1 1 0 -1 -3 -3 -2 -0 2 3 3 3 2 1 0 -0 -0 -0 0 0 0 2 5 7 6 4 2 0 0 1 1 1 1 1 3 4 4 4 6 8 11 14 13 10 7 3 -0 -2 -2
2 -0 -5 -2 -1 -0 -2 -2 -1 1 2 1 -0 -1 -1 -2 -3 -4 -3 -3 -2 -2 -2 -3 -3 -3 -4 -5 -6 -6 -5 -3 -2 -1 -1 -1 -1 -0 1 1 0 -1 -2 -2 -1 1 2 3 4 3 2 0 -0 -0 -0 0 -0 -1 -1 2 5 7 6 4 2 1 0 -0 -1 -1 -1 1 3 4 5 6 6 7 8 9 8 6 4 1 0 1
-0 0 -3 -1 -2 -4 -6 -2 -0 0 -1 -2 -3 -3 -3 -3 -4 -4 -3 -3 -3 -3 -4 -3 -2 -2 -3 -4 -4 -4 -3 -1 -1 -1 -2 -2 -3 -2 -1 -0 0 -0 -1 -1 -0 1 1 3 4 4 4 2 1 -0 0 0 -0 -1 -2 -1 2 4 6 6 4 2 0 -0 -2 -3 -4 -3 -1 1 4 6 6 5 4 3 1 -0 -1 -2 -1 1
-3 1 1 1 -3 -7 -8 -5 -3 -2 -1 -3 -4 -3 -2 -3 -3 -3 -3 -4 -4 -5 -5 -4 -3 -3 -2 -3 -3 -3 -1 -1 -1 -2 -3 -4 -5 -5 -5 -3 -2 -1 -0 0 1 1 1 3 4 5 5 4 2 0 -1 -0 -0 -0 0 1 2 3 4 6 5 5 3 2 1 -1 -4 -5 -5 -4 -2 0 1 -0 -1 -4 -5 -6 -6 -4 -1 1
-6 -2 1 -1 -5 -8 -8 -8 -6 -3 0 -1 -3 -3 -2 -2 -2 -3 -5 -5 -5 -5 -5 -4 -4 -3 -3 -3 -3 -2 -1 -1 -2 -2 -4 -5 -6 -7 -7 -6 -5 -4 -3 -0 1 2 2 4 5 6 5 4 3 1 -1 -2 -2 -1 1 3 3 3 3 4 5 6 7 8 7 5 1 -2 -4 -5 -6 -6 -6 -7 -7 -8 -8 -8 -6 -3 -0 2
-8 -7 -1 -1 -3 -5 -5 -6 -4 -1 1 0 -1 -2 -3 -2 -2 -3 -4 -4 -4 -4 -3 -4 -5 -5 -5 -4 -3 -1 -1 -2 -3 -4 -4 -5 -6 -7 -8 -7 -7 -6 -6 -3 -1 1 2 4 5 6 6 5 4 2 -0 -2 -3 -2 -0 2 4 4 3 3 3 4 6 9 10 9 8 6 4 3 1 -1 -3 -5 -5 -6 -6 -6 -4 -1 1 2
-5 -6 -5 -1 2 2 -2 -6 -5 -0 3 1 -0 -2 -2 -3 -3 -3 -1 -2 -3 -3 -2 -4 -7 -9 -9 -5 -2 -1 -2 -2 -3 -3 -4 -5 -6 -7 -7 -7 -6 -6 -6 -5 -4 -3 -1 1 3 5 6 6 4 3 1 -1 -3 -3 -2 1 3 5 4 2 2 2 3 5 7 8 8 8 9 10 10 8 6 4 2 1 -1 -2 -2 1 2 1
-1 -0 -2 -2 0 3 2 -6 -9 -5 5 3 0 -2 -1 -3 -4 -3 0 -2 -3 -2 -0 -3 -6 -9 -9 -6 -3 -2 -2 -3 -4 -3 -2 -4 -4 -4 -5 -5 -5 -5 -5 -5 -4 -4 -4 -3 -1 1 4 5 4 3 1 -1 -3 -4 -4 -1 2 4 5 3 1 -0 -0 1 3 5 6 6 7 7 8 10 10 9 7 4 1 -0 -1 2 2 1
-1 0 2 -1 -2 -1 1 -6 -8 -5 4 3 1 -2 -2 -3 -2 -1 -1 -6 -5 -1 2 -1 -3 -4 -6 -6 -4 -2 -1 -3 -5 -5 -3 -3 -3 -3 -3 -3 -3 -4 -4 -3 -4 -4 -4 -4 -3 -2 0 2 3 3 2 -0 -3 -4 -4 -2 0 3 5 5 2 -1 -3 -2 -0 2 3 4 4 3 3 5 6 7 6 4 1 -0 -1 1 1 -1
-1 -1 1 -1 -2 -3 -4 -6 -4 -1 4 4 2 -1 -4 -5 -1 1 -1 -8 -8 -4 1 0 0 -0 -1 -3 -3 -2 -1 -3 -4 -5 -4 -4 -4 -4 -3 -4 -4 -4 -3 -3 -4 -5 -5 -4 -4 -3 -2 -1 0 2 3 1 -1 -2 -3 -3 -2 1 5 6 5 2 -2 -4 -3 -2 1 2 1 0 -1 0 2 3 4 2 -0 -2 -2 -2 -3 -5
-3 -3 -1 -1 -2 -3 -4 -3 -1 1 3 1 -2 -6 -10 -6 -0 4 -0 -7 -8 -6 -1 1 1 0 1 1 0 -1 -1 -3 -4 -4 -3 -4 -4 -4 -4 -5 -5 -5 -4 -5 -6 -7 -6 -5 -4 -4 -3 -2 -1 -0 2 3 2 0 -1 -2 -2 -0 3 7 8 8 5 1 -2 -3 -2 -1 -2 -3 -4 -3 -1 -0 0 -1 -2 -3 -5 -5 -6 -6
-2 -1 0 -1 -3 -3 -1 -0 -0 -1 -3 -5 -8 -9 -10 -4 2 4 2 -4 -6 -4 2 2 -1 -2 1 3 2 0 -1 -2 -3 -3 -3 -4 -4 -4 -3 -5 -6 -5 -3 -5 -8 -9 -7 -5 -5 -6 -5 -3 -2 -1 1 2 3 3 2 1 -0 0 2 5 9 12 13 10 6 2 0 -1 -3 -5 -6 -5 -3 -2 -2 -2 -4 -5 -6 -7 -7 -6
-1 1 2 -1 -3 -3 -1 -0 -0 -3 -8 -6 -4 -2 -0 2 3 3 2 -3 -4 -0 6 3 -1 -3 -1 0 1 1 -0 -1 -2 -3 -5 -6 -5 -3 -1 -4 -5 -6 -4 -5 -8 -9 -6 -4 -5 -6 -6 -4 -3 -2 -0 1 2 3 4 4 3 2 2 4 8 14 18 16 13 9 5 2 -1 -4 -4 -4 -2 -2 -2 -3 -4 -5 -7 -8 -6 -4
1 4 4 -1 -3 -3 -4 0 0 -2 -6 -1 3 5 5 2 1 1 1 -2 -1 3 7 5 2 -0 -4 -3 -1 1 0 -1 -2 -4 -6 -9 -8 -4 1 -1 -4 -6 -5 -5 -7 -8 -6 -4 -5 -6 -6 -5 -4 -2 -0 -0 0 1 3 5 6 5 4 4 7 12 17 19 18 14 9 5 1 -1 -2 -1 0 1 0 -1 -2 -4 -6 -7 -6 -4
5 7 4 1 -1 -4 -6 -0 1 0 -1 3 4 5 3 -0 -1 -0 0 0 3 5 5 4 3 0 -4 -4 -1 -0 -2 -2 -3 -5 -6 -11 -10 -5 2 1 -2 -5 -5 -5 -5 -6 -4 -4 -5 -5 -6 -6 -5 -3 -2 -1 -1 -0 1 2 4 5 5 3 4 7 12 16 18 16 12 7 3 0 -0 2 3 4 4 3 0 -3 -6 -6 -6 -4
4 5 4 2 -2 -5 -3 1 2 2 5 5 4 3 3 2 3 3 3 3 3 3 1 1 0 -2 -5 -4 -2 -0 -0 -3 -3 -4 -5 -10 -10 -5 2 1 -2 -4 -5 -5 -5 -4 -3 -4 -5 -5 -5 -5 -5 -4 -4 -3 -2 -1 -1 -1 -0 1 1 1 1 3 7 12 15 16 14 9 4 1 0 3 5 7 7 6 3 -1 -4 -6 -6 -5
3 2 4 1 -3 -5 -2 0 2 4 6 4 3 3 4 4 5 6 4 3 1 -1 -2 0 -1 -3 -4 -8 -5 0 5 0 -1 -2 -4 -9 -9 -5 1 1 -1 -4 -5 -5 -5 -4 -3 -4 -4 -4 -4 -4 -4 -4 -4 -4 -4 -4 -3 -2 -2 -2 -2 -2 -1 0 4 8 11 14 14 12 8 4 2 3 5 7 8 6 3 -0 -4 -6 -6 -6
12 8 6 3 0 -1 -2 -4 -3 -0 2 3 4 5 4 3 4 4 2 1 0 -1 -1 -2 -3 -4 -3 -6 -4 1 8 5 2 0 -3 -7 -8 -6 -1 -0 -1 -3 -6 -7 -5 -2 -2 -4 -4 -4 -3 -3 -2 -2 -3 -3 -4 -4 -4 -4 -3 -3 -2 -3 -2 -1 1 5 8 11 13 13 12 10 8 6 6 6 7 5 2 -1 -4 -6 -6 -6
26 21 15 13 10 5 -2 -7 -6 -2 1 5 7 7 3 3 3 2 -1 -0 0 1 1 -1 -5 -7 -4 -2 -2 1 8 6 4 1 -1 -4 -6 -6 -3 -1 -1 -3 -7 -7 -5 -2 -2 -4 -5 -4 -3 -2 -2 -2 -2 -2 -3 -3 -3 -3 -3 -3 -3 -3 -3 -3 -2 1 4 8 12 14 15 16 15 12 10 8 6 4 1 -2 -5 -6 -6 -5
11 8 7 14 14 9 0 -1 -1 2 5 8 8 5 1 2 2 0 -1 0 -0 -1 -2 -4 -6 -5 -1 -0 -1 -0 8 5 2 -0 2 1 -3 -6 -2 -1 -1 -3 -7 -7 -4 -2 -2 -4 -5 -5 -4 -2 -2 -2 -2 -2 -2 -2 -3 -3 -2 -2 -2 -2 -3 -4 -4 -3 -1 3 8 14 17 19 19 16 13 10 7 4 0 -3 -5 -7 -7 -5
-2 -5 -5 2 4 3 -2 -2 -0 2 8 9 6 1 -1 1 1 -0 -1 1 0 -2 -4 -4 -2 0 3 1 -0 1 6 4 1 1 4 2 -3 -6 1 2 -0 -4 -8 -6 -4 -1 -3 -4 -5 -5 -4 -3 -3 -2 -2 -2 -1 -2 -2 -2 -2 -2 -2 -2 -2 -3 -4 -4 -3 0 5 12 18 21 20 17 13 10 7 4 1 -2 -5 -7 -8 -6
-3 -6 -6 -2 -0 0 -1 -1 -0 2 6 8 6 4 2 3 2 1 2 4 4 3 2 4 5 6 4 2 1 2 3 3 3 3 4 -1 -6 -5 3 5 2 -2 -8 -5 -2 -1 -4 -5 -6 -6 -4 -4 -3 -2 -2 -1 -1 -1 -1 -2 -2 -3 -2 -1 -1 -1 -2 -2 -2 -0 2 9 16 20 20 16 12 8 5 3 0 -2 -5 -8 -8 -7
-0 -2 -4 -2 -0 1 1 -0 -0 1 2 3 3 4 4 4 4 4 6 8 9 8 8 9 7 4 -1 2 2 1 -0 1 1 1 1 -2 -5 -5 1 5 4 -1 -5 -4 -2 -1 -3 -6 -6 -6 -5 -6 -4 -2 -1 -1 -1 -1 -1 -1 -2 -3 -3 -2 -1 -1 -1 -0 -0 0 -0 5 11 16 18 16 13 9 6 3 1 -2 -4 -7 -7 -6
5 3 2 2 2 2 2 1 1 0 0 -0 -1 -1 0 2 4 7 10 10 9 9 9 8 4 -1 -3 1 1 -1 -2 0 -1 -2 -2 -1 -3 -4 -3 3 3 0 -3 -2 -1 -1 -3 -6 -7 -6 -6 -7 -5 -3 -1 -1 -0 0 0 -0 -1 -2 -3 -3 -2 -2 -1 0 1 1 0 2 6 10 14 15 14 11 9 6 4 1 -2 -4 -4 -2
6 6 7 7 7 7 7 7 7 6 5 4 1 -0 1 3 6 9 8 5 5 7 8 5 1 -2 -1 2 -0 -4 -2 1 -0 -3 -3 1 -1 -4 -6 1 3 1 -1 -2 -2 -2 -2 -5 -6 -7 -6 -7 -6 -4 -2 -1 0 1 1 0 -0 -1 -2 -2 -2 -2 -1 -0 0 1 1 2 4 6 9 10 11 10 9 8 6 3 -0 -0 1 3
0 1 2 3 3 4 5 7 10 12 13 13 11 10 10 10 10 7 -1 -1 4 8 8 3 1 -0 1 -0 -3 -4 0 2 -0 -3 -2 2 -0 -4 -7 0 2 1 -0 -2 -3 -2 -1 -4 -5 -6 -6 -7 -6 -4 -3 -1 0 0 0 0 -0 -0 -1 -1 -2 -2 -2 -2 -1 -0 1 2 3 5 6 7 8 7 6 5 4 2 -0 0 2 4
-3 -2 -2 -2 -2 -2 -0 2 5 8 12 15 18 22 25 21 12 3 -6 1 7 10 6 2 0 0 -0 -1 -1 1 3 1 -1 -3 -1 1 -2 -7 -6 0 1 -1 0 -0 -1 -2 -2 -4 -5 -5 -6 -5 -5 -4 -4 -2 -1 -1 -1 -0 -0 -1 -1 -1 -1 -1 -2 -2 -2 -1 -0 1 2 3 4 6 6 5 3 1 0 -1 -2 -0 2 4
-4 -3 -2 -2 -1 -0 0 -0 -1 0 2 5 11 18 27 26 17 7 1 7 9 8 3 1 1 1 1 3 5 5 1 -2 -3 -2 -1 -0 -4 -7 -3 -0 -1 -2 0 2 2 1 -4 -5 -5 -4 -4 -4 -3 -4 -4 -4 -4 -4 -3 -2 -2 -2 -2 -2 -1 -1 -1 -2 -2 -2 -2 -2 -2 -1 1 2 2 0 -2 -4 -4 -3 -2 3 6 8
-4 -3 -3 -3 -1 0 1 -0 -1 -1 -1 -1 1 5 13 18 16 12 10 10 9 6 2 1 1 2 3 6 6 2 -4 -4 -2 -1 -2 -3 -5 -6 -1 -1 -3 -4 -1 2 3 2 -3 -5 -4 -2 -2 -2 -2 -3 -4 -4 -5 -5 -4 -4 -3 -3 -3 -3 -2 -2 -1 -1 -1 -2 -2 -3 -3 -4 -4 -4 -4 -6 -7 -6 -3 1 6 10 12 12
-2 -2 -4 -3 -2 -1 -1 -1 -1 -2 -2 -2 -2 -1 1 5 8 9 10 9 8 6 5 3 2 2 3 4 1 -3 -8 -2 0 1 -2 -3 -4 -4 -1 -2 -3 -4 -2 -1 -0 -0 -3 -4 -4 -1 -0 -1 -2 -3 -3 -3 -4 -4 -4 -4 -4 -3 -2 -2 -2 -2 -2 -1 -1 -1 -2 -2 -3 -3 -3 -4 -4 -4 -4 -1 4 10 16 16 14 11
0 -2 -4 -4 -3 -3 -3 -2 -2 -2 -3 -3 -3 -3 -2 -0 1 2 4 5 5 5 5 4 3 3 3 2 -0 -3 -4 0 2 1 -0 -1 -1 -1 -0 -1 -2 -3 -2 -1 -1 -2 -3 -5 -4 -2 -1 -1 -1 -2 -2 -2 -2 -3 -2 -3 -3 -3 -2 -1 -1 -2 -2 -1 -1 -1 -0 -0 1 2 3 4 5 6 8 10 12 15 18 15 10 6
4 0 -3 -3 -4 -4 -4 -3 -2 -2 -3 -3 -3 -3 -3 -2 -1 0 1 1 2 2 1 1 1 2 2 3 2 0 -1 0 1 1 1 1 -0 -1 0 -0 -1 -2 -0 -1 -1 -1 -2 -4 -4 -3 -3 -3 -2 -1 -1 -1 -2 -2 -2 -2 -2 -2 -2 -1 -1 -2 -2 -1 -0 0 0 1 3 4 6 9 11 13 13 13 12 12 13 9 5 1
10 5 1 -0 -2 -4 -5 -4 -3 -3 -2 -2 -3 -3 -3 -2 -2 -1 -0 -0 -0 -1 -1 -2 -1 1 2 3 3 1 -2 -1 1 2 2 1 -0 -0 1 -0 -1 -1 -0 -1 -1 -1 -2 -3 -3 -2 -2 -3 -3 -2 -1 -1 -1 -2 -2 -2 -2 -2 -2 -2 -2 -2 -2 -0 1 1 1 1 2 2 3 5 6 8 8 7 6 6 6 4 1 -2
11 9 5 2 -0 -2 -4 -4 -4 -3 -3 -3 -2 -2 -2 -2 -2 -1 -1 -1 -1 -2 -2 -2 -2 -1 1 2 2 1 -1 1 4 5 3 0 0 1 2 -1 -2 -1 0 -1 -1 -1 -2 -3 -3 -2 -1 -2 -2 -2 -2 -1 -1 -2 -2 -2 -2 -2 -2 -2 -2 -2 -2 -1 0 1 2 2 2 1 0 -0 0 1 2 1 0 -0 -0 -0 -1 -3
5 5 3 2 1 -1 -2 -3 -3 -4 -4 -3 -2 -2 -1 -2 -2 -1 -1 -1 -1 -1 -2 -2 -2 -2 -1 -1 -1 -0 1 5 7 7 5 2 1 1 1 -2 -2 0 1 -0 -1 -1 -1 -1 -1 -0 -0 -2 -3 -3 -1 -0 -0 -1 -2 -3 -2 -2 -1 -1 -1 -1 -2 -2 -2 -1 0 2 2 2 1 1 1 2 2 0 -1 -2 -2 -2 -2 -2
0 1 1 1 0 -0 -2 -3 -4 -4 -4 -3 -2 -1 -1 -1 -1 -1 0 0 0 -0 -1 -2 -3 -3 -2 -2 -2 -1 2 6 7 7 6 5 3 2 0 -1 -0 0 -1 -1 -1 0 1 1 1 0 -1 -4 -4 -4 -1 1 1 -0 -2 -2 -2 -1 -1 -1 -0 -1 -1 -2 -2 -2 -2 -1 0 1 1 2 3 4 4 3 2 0 0 0 1 2
-0 0 1 1 1 -0 -1 -3 -4 -4 -3 -1 -0 0 -0 -1 -1 -1 0 1 1 0 -0 -1 -2 -3 -3 -3 -2 -1 1 2 3 5 7 7 5 3 2 1 -0 -1 -2 -1 1 2 2 1 -1 -2 -3 -3 -3 -3 -1 0 0 -0 -1 -1 -1 -1 -1 -0 0 0 -0 -1 -1 -1 -2 -2 -2 -2 -2 -1 -1 -0 0 -0 -0 0 1 3 4 4
-0 -0 0 1 1 0 -0 -2 -3 -2 -1 -0 1 1 1 -1 -2 -2 -1 1 1 1 1 0 -1 -2 -3 -3 -2 -2 -1 -1 0 2 5 6 6 5 4 2 -0 -1 -0 1 1 2 2 0 -1 -3 -2 -1 -1 -2 -2 -1 -1 -1 0 1 0 -1 -2 -0 0 1 1 0 0 -0 -1 -2 -2 -3 -3 -4 -4 -5 -6 -6 -6 -4 -3 -1 -0 1
-1 -0 0 1 1 1 1 -0 0 1 1 1 2 1 0 -1 -2 -2 -2 -0 0 1 1 2 1 -0 -1 -2 -2 -2 -1 -1 -1 0 1 3 4 6 6 4 2 2 2 2 2 1 1 1 0 -0 0 0 -0 -0 -1 -2 -2 -1 1 0 -2 -4 -3 -1 -0 1 1 1 1 1 0 -0 -1 -2 -3 -4 -4 -5 -6 -5 -4 -4 -2 -2 -3 -4
-1 -1 0 2 2 2 1 2 2 2 1 2 1 1 -0 -0 -0 -1 -1 -1 -1 -1 1 2 2 2 1 -1 -3 -3 -3 -2 -1 -1 -1 -0 2 4 5 5 4 4 4 4 3 2 2 1 1 1 -0 0 1 2 1 -0 -1 -0 0 -1 -1 -0 1 0 -0 -1 0 1 1 1 1 0 -1 -2 -2 -2 -3 -3 -1 -1 -0 -0 -0 -0 -1 -2
-2 -2 -0 2 4 4 3 3 3 2 1 1 0 -1 -1 -0 0 1 1 -0 -1 -1 -0 1 2 3 2 1 -1 -3 -4 -4 -2 -1 -0 -1 -0 1 2 3 4 4 5 6 5 3 1 2 2 1 -1 0 1 1 1 1 2 2 1 -0 1 4 5 1 -1 -2 -1 -1 -0 0 -0 -1 -1 -2 -1 -1 -0 -0 0 -0 -0 -1 -1 -2 -2 -2
-1 -2 -0 1 3 4 5 4 2 1 0 -0 -1 -1 -1 -0 0 1 1 -0 -0 -0 1 1 2 3 3 1 -0 -1 -3 -4 -3 -2 -1 -1 -1 -0 0 1 2 2 4 6 5 3 3 4 3 1 0 2 2 2 0 1 1 1 1 1 1 1 -2 -3 -3 -3 -3 -2 -1 -1 -1 -1 -0 1 1 1 1 0 -1 -1 -2 -2 -2 -2 -2 -2
-1 -2 -1 -0 2 3 4 3 2 1 0 -0 -0 -0 -0 -0 0 1 0 -0 0 1 1 2 3 4 2 -0 -0 -0 -0 -2 -3 -4 -3 -2 -1 -0 -0 0 1 1 2 2 2 3 6 5 2 1 2 4 3 2 1 0 -0 -0 -0 2 3 2 -1 1 1 -1 -3 -3 -3 -2 -1 0 2 2 2 1 -0 -1 -2 -2 -3 -3 -3 -2 -1 -2
-1 -1 -2 -1 0 2 3 2 2 2 1 1 0 0 0 0 0 0 -0 0 1 1 1 3 4 3 0 -1 -1 0 1 0 -1 -3 -4 -4 -2 -1 -0 -0 -0 0 1 -0 0 1 4 3 2 3 6 6 5 2 -0 -1 -2 -1 -1 1 4 5 5 7 6 4 -0 -2 -3 -2 -1 1 3 2 1 -1 -1 -2 -2 -3 -3 -4 -3 -3 -2 -3
2 2 1 1 1 1 3 4 5 4 3 2 1 0 0 0 -0 -0 -0 0 1 2 2 4 4 2 -1 -1 -0 1 0 -0 -0 -0 -2 -4 -4 -3 -1 -1 -0 0 0 -0 0 1 1 1 3 6 8 9 7 5 2 1 -0 -2 -3 -1 1 3 4 5 5 4 3 1 -0 -0 1 3 3 1 -1 -1 -1 -1 -1 -2 -2 -3 -3 -3 -3 -3
4 5 4 4 4 4 5 7 7 6 4 2 1 1 0 -0 -0 -0 -0 -0 1 2 4 4 3 1 -1 -0 -0 -0 -0 -1 -0 0 0 -1 -3 -4 -3 -1 -0 0 0 0 -0 -0 -0 0 2 4 6 7 6 5 4 5 3 0 -3 -3 -2 -1 -0 -1 0 2 3 2 1 2 3 2 1 -0 -0 1 1 0 -1 -1 -1 -2 -2 -3 -3 -3
3 4 4 4 4 4 4 6 7 7 5 4 3 2 1 -0 -0 -0 -1 -0 1 2 3 3 2 1 1 -0 -1 -1 0 0 0 0 1 0 -1 -2 -3 -2 -1 0 1 1 0 0 -0 -0 -1 -1 -0 2 4 4 4 6 6 4 1 -0 -1 -3 -4 -3 -2 -0 1 1 1 2 3 1 -0 -1 1 2 1 -1 -1 -1 -1 -1 -2 -2 -2 -3
2 2 3 4 4 3 3 4 6 7 7 6 5 4 2 1 1 0 -0 1 1 1 1 1 1 1 1 -0 -0 0 1 1 1 1 0 0 0 0 -0 -1 -0 0 2 3 3 3 4 2 -1 -5 -7 -3 -0 2 2 3 5 6 6 4 1 -1 -2 -3 -3 -2 -0 0 1 1 2 1 1 2 3 2 0 -1 -1 -1 -2 -2 -2 -2 -2 -4
1 -0 0 1 1 1 1 3 4 6 7 8 7 6 5 3 2 1 2 2 1 1 -0 0 1 1 0 -0 1 1 1 1 1 0 -1 -0 0 1 1 1 1 1 3 5 6 7 8 6 2 -4 -10 -10 -6 -1 0 -1 0 3 5 4 3 3 2 -0 -1 -1 1 2 2 2 2 2 3 3 3 2 1 -0 -0 -2 -3 -4 -4 -2 -2 -3
Height
1404 1404 1405 1405 1405 1404 1402 1403 1404 1403 1402 1401 1402 1402 1402 1400 1399 1397 1397 1396 1395 1394 1394 1393 1393 1392 1392 1392 1392 1391 1391 1391 1390 1390 1389 1388 1388 1387 1387 1387 1387 1387 1386 1386 1386 1386 1386 1386 1386 1386 1386 1387 1387 1388 1389 1390 1392 1393 1395 1396 1398 1399 1401 1402 1403 1404 1406 1407 1408 1409 1410 1412 1413 1414 1415 1416 1417 1417 1419 1420 1421 1422 1424 1426 1427 1429
1402 1402 1402 1403 1403 1402 1400 1400 1401 1401 1399 1399 1399 1399 1399 1398 1397 1396 1395 1394 1393 1392 1391 1391 1390 1389 1389 1388 1388 1388 1388 1388 1387 1387 1387 1386 1386 1385 1385 1384 1384 1384 1383 1383 1383 1383 1383 1383 1383 1383 1383 1384 1384 1385 1386 1387 1389 1390 1392 1393 1394 1396 1397 1399 1400 1402 1402 1404 1405 1406 1407 1408 1410 1411 1412 1413 1414 1415 1416 1417 1419 1420 1422 1423 1425 1427
1401 1400 1400 1400 1401 1400 1398 1398 1398 1398 1397 1397 1396 1396 1396 1395 1394 1394 1393 1392 1391 1390 1389 1388 1387 1387 1386 1385 1385 1385 1385 1385 1385 1384 1384 1383 1383 1382 1382 1382 1381 1381 1381 1381 1380 1380 1380 1380 1380 1380 1381 1381 1381 1382 1383 1384 1385 1387 1388 1389 1391 1392 1394 1395 1397 1398 1399 1401 1402 1403 1405 1406 1407 1408 1409 1411 1412 1413 1414 1415 1416 1417 1419 1421 1423 1425
1399 1398 1397 1397 1398 1397 1396 1396 1395 1395 1395 1394 1393 1393 1393 1392 1391 1391 1390 1390 1389 1387 1387 1386 1385 1384 1383 1382 1382 1382 1382 1382 1382 1381 1381 1381 1380 1380 1380 1379 1379 1378 1378 1378 1378 1378 1378 1377 1377 1378 1378 1378 1378 1379 1380 1381 1382 1383 1384 1386 1387 1389 1390 1392 1393 1395 1396 1397 1399 1400 1402 1403 1404 1405 1406 1407 1409 1410 1411 1412 1414 1415 1417 1419 1421 1422
1396 1396 1395 1395 1394 1393 1393 1393 1393 1392 1392 1391 1390 1390 1389 1388 1388 1387 1387 1387 1386 1385 1384 1383 1383 1382 1381 1380 1379 1379 1379 1379 1378 1378 1378 1377 1377 1377 1377 1377 1377 1376 1376 1375 1375 1375 1375 1375 1375 1375 1375 1375 1376 1376 1377 1378 1379 1380 1381 1382 1384 1385 1387 1388 1390 1391 1393 1394 1396 1397 1398 1400 1401 1402 1403 1405 1406 1407 1408 1409 1411 1413 1415 1417 1419 1420
1392 1393 1393 1392 1392 1390 1390 1390 1390 1390 1389 1388 1387 1387 1386 1385 1384 1384 1383 1383 1382 1382 1381 1381 1380 1379 1378 1378 1377 1377 1377 1376 1376 1375 1375 1375 1375 1374 1374 1374 1374 1373 1373 1373 1373 1372 1372 1372 1372 1372 1372 1372 1373 1373 1374 1375 1376 1377 1378 1379 1380 1382 1383 1385 1386 1388 1389 1391 1392 1394 1395 1397 1398 1400 1401 1402 1403 1404 1406 1407 1409 1411 1413 1415 1417 1418
1389 1390 1390 1389 1388 1387 1387 1386 1386 1387 1386 1385 1384 1383 1382 1382 1381 1381 1380 1379 1379 1378 1378 1377 1377 1376 1376 1375 1375 1374 1374 1373 1373 1372 1372 1372 1372 1371 1371 1371 1371 1371 1370 1370 1370 1370 1370 1370 1370 1370 1370 1370 1370 1370 1371 1372 1372 1373 1374 1376 1377 1378 1380 1381 1383 1384 1386 1387 1389 1390 1392 1393 1395 1396 1397 1399 1401 1402 1403 1405 1407 1409 1411 1412 1414 1415
1386 1386 1387 1386 1385 1384 1383 1383 1382 1383 1383 1382 1381 1380 1379 1379 1378 1377 1377 1376 1376 1375 1375 1374 1373 1373 1373 1372 1372 1372 1371 1370 1370 1369 1369 1369 1368 1368 1368 1368 1368 1367 1367 1367 1367 1367 1367 1367 1367 1367 1367 1367 1367 1367 1368 1369 1369 1370 1371 1372 1374 1375 1377 1378 1380 1381 1382 1384 1386 1387 1388 1390 1391 1392 1394 1396 1397 1399 1400 1402 1404 1406 1408 1410 1411 1412
1384 1383 1382 1383 1382 1382 1380 1379 1379 1379 1380 1379 1378 1377 1377 1376 1375 1375 1374 1373 1372 1372 1371 1371 1370 1369 1369 1369 1369 1369 1368 1368 1367 1367 1366 1366 1365 1365 1365 1365 1364 1364 1364 1364 1364 1364 1364 1364 1364 1364 1364 1364 1364 1364 1365 1365 1366 1367 1368 1369 1370 1372 1373 1375 1376 1378 1379 1381 1382 1384 1385 1387 1388 1390 1391 1392 1394 1395 1397 1398 1400 1402 1404 1406 1407 1409
1381 1380 1379 1378 1379 1379 1377 1376 1375 1376 1377 1376 1375 1375 1374 1373 1373 1372 1372 1371 1369 1369 1368 1368 1367 1366 1365 1365 1366 1366 1365 1365 1364 1364 1364 1363 1363 1362 1362 1362 1362 1361 1361 1361 1361 1361 1361 1360 1360 1360 1360 1361 1361 1361 1362 1362 1363 1364 1365 1366 1367 1368 1370 1372 1373 1375 1376 1377 1379 1380 1382 1383 1385 1386 1388 1389 1391 1392 1393 1395 1397 1399 1401 1403 1404 1406
1377 1377 1377 1376 1375 1375 1375 1373 1372 1373 1373 1373 1372 1371 1371 1370 1370 1370 1369 1367 1367 1367 1366 1365 1364 1363 1362 1362 1362 1362 1362 1362 1361 1361 1361 1361 1360 1360 1360 1359 1359 1358 1358 1358 1357 1357 1357 1357 1357 1357 1357 1357 1357 1357 1358 1359 1359 1360 1362 1362 1364 1365 1367 1368 1370 1371 1373 1375 1376 1377 1379 1380 1382 1383 1385 1387 1388 1389 1390 1392 1394 1396 1398 1400 1401 1403
1375 1374 1374 1373 1372 1372 1371 1371 1370 1370 1370 1370 1369 1368 1367 1366 1367 1367 1366 1364 1364 1364 1364 1363 1362 1361 1360 1360 1359 1359 1359 1359 1358 1358 1358 1357 1357 1357 1357 1357 1356 1356 1355 1355 1354 1354 1353 1353 1353 1353 1353 1353 1353 1354 1355 1355 1356 1357 1358 1359 1360 1362 1363 1365 1367 1368 1370 1371 1373 1374 1376 1377 1379 1380 1382 1383 1385 1386 1388 1389 1391 1393 1395 1397 1398 1400
1372 1372 1371 1370 1369 1368 1368 1368 1367 1367 1367 1366 1365 1364 1363 1362 1363 1363 1362 1361 1360 1361 1361 1361 1360 1359 1358 1357 1357 1357 1357 1356 1356 1355 1355 1355 1355 1355 1354 1354 1353 1353 1352 1352 1351 1350 1350 1350 1350 1350 1350 1349 1350 1350 1351 1352 1353 1354 1355 1356 1357 1358 1360 1362 1363 1365 1366 1368 1369 1371 1372 1374 1376 1377 1379 1381 1382 1384 1385 1387 1388 1390 1392 1394 1396 1397
1369 1368 1368 1367 1366 1365 1365 1364 1364 1363 1362 1361 1361 1360 1359 1359 1360 1360 1359 1358 1357 1357 1358 1357 1357 1356 1356 1355 1355 1354 1354 1354 1353 1353 1353 1352 1352 1352 1352 1351 1351 1350 1350 1349 1347 1347 1347 1347 1346 1346 1346 1346 1346 1347 1347 1348 1349 1351 1352 1353 1354 1355 1357 1358 1360 1362 1363 1364 1365 1367 1369 1370 1372 1374 1376 1377 1379 1381 1382 1384 1385 1387 1389 1391 1393 1395
1366 1365 1364 1363 1362 1361 1361 1361 1361 1359 1358 1357 1357 1357 1357 1357 1357 1357 1357 1355 1354 1355 1355 1355 1353 1353 1353 1353 1352 1352 1352 1351 1351 1351 1350 1350 1350 1350 1350 1349 1348 1347 1347 1346 1345 1344 1344 1344 1343 1343 1343 1343 1343 1343 1344 1345 1346 1347 1348 1350 1351 1352 1354 1355 1357 1358 1359 1361 1362 1363 1365 1367 1368 1371 1373 1374 1376 1377 1379 1381 1382 1384 1387 1388 1390 1392
1362 1362 1360 1359 1358 1357 1358 1358 1357 1356 1355 1354 1354 1354 1354 1354 1353 1353 1353 1352 1352 1352 1353 1352 1351 1350 1349 1349 1350 1350 1350 1349 1348 1348 1348 1347 1347 1348 1348 1347 1346 1345 1344 1343 1342 1342 1342 1342 1341 1341 1340 1340 1341 1341 1342 1342 1343 1344 1345 1347 1348 1349 1351 1352 1353 1355 1356 1358 1359 1360 1362 1363 1365 1367 1369 1371 1373 1374 1376 1377 1379 1381 1383 1385 1387 1389
1359 1358 1357 1356 1355 1354 1355 1355 1355 1353 1352 1352 1352 1352 1351 1351 1350 1350 1350 1350 1350 1350 1350 1350 1349 1348 1347 1347 1347 1347 1347 1347 1346 1346 1346 1345 1345 1345 1345 1344 1343 1342 1342 1341 1340 1340 1340 1339 1339 1339 1338 1338 1338 1339 1339 1339 1340 1341 1342 1343 1344 1346 1347 1349 1350 1351 1353 1355 1356 1357 1359 1360 1362 1364 1366 1368 1370 1371 1373 1374 1376 1378 1380 1382 1384 1386
1355 1355 1354 1353 1352 1352 1352 1352 1352 1352 1351 1350 1349 1349 1348 1348 1347 1347 1347 1347 1348 1347 1347 1347 1347 1346 1346 1345 1344 1344 1344 1344 1344 1343 1343 1342 1342 1342 1342 1342 1341 1340 1339 1339 1338 1338 1338 1337 1337 1337 1336 1336 1336 1337 1337 1337 1337 1338 1339 1340 1341 1342 1344 1345 1347 1348 1350 1352 1353 1354 1356 1357 1359 1361 1363 1365 1367 1368 1370 1371 1372 1374 1377 1379 1381 1383
1352 1352 1351 1350 1350 1349 1350 1350 1350 1349 1349 1348 1347 1347 1346 1346 1345 1345 1345 1345 1345 1345 1345 1344 1344 1343 1343 1342 1342 1342 1342 1342 1342 1341 1340 1339 1339 1339 1340 1339 1338 1337 1337 1336 1336 1336 1336 1336 1335 1335 1335 1335 1334 1334 1334 1334 1335 1335 1336 1337 1338 1339 1340 1342 1343 1345 1347 1348 1350 1352 1353 1355 1357 1358 1360 1362 1364 1365 1367 1368 1370 1372 1374 1376 1378 1380
1350 1349 1348 1347 1347 1347 1347 1347 1347 1347 1347 1346 1345 1345 1344 1343 1343 1343 1342 1342 1342 1342 1342 1342 1341 1341 1341 1340 1340 1341 1341 1340 1340 1339 1338 1337 1337 1337 1337 1337 1336 1335 1334 1334 1334 1334 1334 1333 1333 1333 1333 1333 1332 1332 1332 1332 1332 1333 1333 1334 1335 1336 1337 1339 1341 1342 1344 1345 1347 1349 1351 1352 1354 1355 1357 1359 1360 1362 1363 1365 1367 1368 1371 1373 1376 1377
1349 1347 1347 1346 1346 1345 1344 1344 1344 1344 1345 1344 1343 1342 1341 1341 1341 1340 1340 1340 1340 1339 1339 1339 1338 1338 1338 1338 1338 1339 1339 1339 1338 1337 1336 1335 1335 1334 1335 1335 1334 1333 1332 1332 1332 1332 1332 1332 1331 1331 1331 1331 1331 1331 1331 1330 1330 1331 1331 1332 1332 1333 1335 1336 1337 1339 1341 1342 1344 1346 1348 1350 1351 1353 1354 1355 1357 1359 1360 1362 1364 1366 1368 1371 1373 1375
1348 1346 1346 1345 1344 1343 1342 1342 1342 1342 1342 1342 1341 1340 1339 1338 1338 1338 1337 1337 1337 1337 1337 1336 1335 1335 1336 1336 1336 1337 1337 1336 1336 1335 1335 1334 1332 1332 1332 1332 1332 1331 1330 1329 1329 1330 1330 1329 1329 1329 1329 1329 1329 1329 1329 1328 1328 1328 1328 1329 1329 1330 1332 1333 1334 1336 1338 1340 1341 1343 1345 1347 1348 1350 1352 1353 1354 1356 1357 1359 1361 1363 1366 1368 1370 1372
1345 1343 1343 1343 1342 1341 1340 1340 1339 1339 1339 1339 1338 1337 1336 1336 1336 1336 1335 1335 1335 1334 1334 1334 1333 1333 1334 1334 1334 1334 1334 1334 1333 1333 1333 1332 1331 1330 1331 1331 1330 1329 1328 1327 1327 1328 1327 1327 1327 1327 1327 1327 1327 1327 1327 1327 1326 1326 1326 1326 1326 1327 1328 1329 1331 1333 1335 1337 1339 1341 1342 1344 1346 1347 1349 1350 1351 1353 1355 1356 1358 1361 1363 1365 1368 1370
1341 1340 1339 1339 1338 1338 1337 1337 1336 1336 1336 1335 1335 1334 1334 1334 1333 1333 1333 1333 1332 1332 1332 1332 1332 1332 1331 1331 1332 1332 1332 1332 1332 1332 1331 1330 1329 1329 1330 1330 1329 1327 1326 1326 1326 1326 1326 1325 1325 1325 1325 1325 1325 1325 1325 1325 1324 1324 1324 1323 1324 1324 1325 1326 1327 1329 1331 1334 1336 1338 1340 1342 1343 1345 1347 1348 1349 1351 1352 1354 1356 1358 1360 1363 1365 1367
1337 1336 1335 1335 1335 1334 1334 1333 1333 1333 1333 1332 1332 1332 1332 1332 1332 1331 1331 1331 1331 1330 1330 1330 1330 1329 1329 1329 1329 1329 1329 1329 1329 1329 1329 1328 1327 1327 1328 1328 1327 1326 1325 1324 1324 1324 1324 1323 1323 1322 1322 1322 1322 1323 1323 1322 1322 1322 1322 1321 1321 1321 1322 1322 1324 1326 1328 1330 1333 1335 1337 1339 1341 1343 1344 1346 1347 1349 1350 1352 1354 1356 1358 1360 1362 1364
1334 1333 1332 1332 1332 1332 1331 1331 1330 1330 1330 1330 1329 1329 1329 1329 1329 1329 1329 1328 1328 1328 1328 1328 1327 1326 1327 1327 1327 1327 1327 1327 1327 1327 1327 1327 1326 1326 1326 1326 1326 1325 1324 1323 1323 1323 1322 1322 1321 1321 1320 1320 1320 1321 1321 1320 1320 1320 1319 1319 1319 1319 1319 1320 1321 1322 1325 1327 1329 1332 1334 1336 1338 1340 1342 1344 1345 1347 1348 1350 1352 1354 1356 1358 1360 1362
1333 1332 1331 1331 1330 1330 1330 1329 1329 1328 1328 1327 1327 1327 1327 1327 1327 1327 1326 1326 1326 1326 1326 1325 1324 1324 1324 1325 1324 1324 1325 1325 1324 1324 1324 1325 1324 1324 1323 1324 1324 1324 1323 1322 1322 1322 1321 1320 1319 1319 1318 1318 1318 1318 1318 1318 1318 1318 1317 1317 1317 1317 1317 1318 1319 1320 1322 1324 1326 1329 1331 1333 1335 1337 1339 1341 1343 1344 1346 1348 1350 1352 1354 1357 1358 1360
1330 1330 1329 1329 1329 1328 1328 1328 1327 1327 1327 1326 1326 1325 1325 1324 1324 1323 1322 1322 1323 1324 1323 1322 1322 1322 1322 1322 1322 1322 1322 1322 1322 1322 1322 1323 1323 1322 1322 1322 1322 1322 1322 1321 1321 1320 1320 1319 1318 1317 1317 1317 1316 1316 1316 1316 1316 1316 1316 1315 1315 1315 1316 1316 1317 1318 1319 1321 1323 1326 1328 1330 1332 1334 1337 1338 1340 1342 1344 1346 1348 1350 1352 1355 1356 1357
1326 1326 1326 1326 1326 1326 1325 1325 1325 1325 1325 1325 1325 1324 1324 1322 1321 1319 1319 1320 1321 1321 1320 1320 1320 1320 1320 1320 1320 1320 1320 1320 1319 1320 1320 1321 1320 1319 1320 1321 1321 1321 1321 1320 1319 1319 1318 1317 1317 1317 1316 1315 1315 1315 1314 1314 1314 1314 1314 1314 1314 1314 1314 1314 1315 1316 1317 1319 1321 1323 1325 1327 1329 1332 1334 1336 1338 1339 1341 1343 1346 1348 1351 1352 1354 1355
1322 1322 1322 1322 1322 1322 1322 1322 1322 1322 1322 1322 1322 1323 1322 1321 1319 1318 1318 1319 1319 1319 1318 1318 1318 1318 1318 1318 1318 1318 1317 1317 1317 1317 1318 1319 1318 1317 1318 1319 1319 1319 1319 1319 1319 1318 1317 1316 1316 1315 1315 1314 1314 1313 1313 1313 1312 1312 1312 1312 1312 1312 1312 1313 1314 1315 1316 1317 1319 1321 1322 1325 1327 1329 1331 1333 1335 1337 1339 1342 1344 1347 1348 1350 1351 1352
1319 1319 1318 1318 1318 1319 1319 1319 1319 1319 1319 1319 1319 1320 1320 1320 1319 1317 1317 1317 1317 1317 1316 1317 1317 1317 1317 1317 1317 1316 1315 1315 1315 1315 1316 1316 1316 1316 1317 1317 1317 1317 1318 1318 1318 1317 1316 1315 1315 1314 1314 1313 1313 1312 1312 1312 1311 1311 1311 1311 1311 1311 1311 1312 1312 1313 1314 1316 1317 1319 1321 1323 1325 1327 1329 1331 1333 1335 1337 1340 1342 1345 1346 1347 1348 1349
1317 1317 1316 1315 1315 1316 1316 1316 1316 1316 1316 1316 1316 1317 1317 1317 1317 1317 1316 1316 1315 1315 1315 1315 1315 1315 1315 1315 1314 1313 1313 1313 1313 1313 1313 1314 1314 1314 1315 1315 1315 1316 1316 1316 1316 1316 1316 1315 1314 1314 1313 1313 1312 1312 1311 1311 1311 1310 1310 1310 1310 1310 1310 1311 1311 1312 1313 1315 1316 1318 1320 1322 1323 1326 1327 1329 1332 1333 1336 1338 1340 1342 1343 1344 1345 1345
1315 1314 1313 1313 1313 1313 1313 1313 1313 1313 1313 1313 1314 1314 1314 1314 1314 1314 1314 1313 1313 1313 1313 1313 1313 1313 1313 1313 1312 1312 1312 1312 1312 1311 1311 1312 1312 1312 1313 1313 1313 1314 1314 1314 1314 1314 1314 1313 1313 1313 1312 1312 1312 1311 1311 1310 1310 1310 1309 1309 1309 1309 1310 1310 1311 1312 1312 1314 1316 1317 1319 1320 1322 1324 1326 1328 1330 1332 1334 1336 1337 1339 1340 1341 1341 1342
1312 1312 1311 1311 1311 1310 1310 1310 1311 1311 1311 1311 1311 1311 1311 1311 1311 1311 1311 1311 1311 1311 1311 1311 1311 1311 1311 1311 1310 1310 1310 1310 1310 1310 1310 1310 1310 1311 1311 1311 1312 1312 1312 1312 1312 1312 1312 1312 1312 1312 1312 1311 1311 1311 1310 1310 1309 1309 1309 1309 1309 1309 1309 1309 1310 1311 1312 1313 1315 1316 1318 1319 1321 1322 1324 1326 1328 1330 1332 1333 1335 1336 1337 1338 1339 1340
1310 1309 1309 1308 1308 1308 1308 1308 1308 1308 1308 1308 1308 1308 1308 1308 1308 1308 1308 1308 1308 1308 1308 1308 1309 1309 1309 1309 1308 1308 1308 1308 1308 1308 1308 1308 1308 1309 1309 1309 1310 1310 1311 1311 1311 1311 1311 1310 1310 1311 1311 1310 1310 1310 1309 1309 1309 1308 1308 1308 1308 1308 1308 1309 1309 1310 1311 1312 1314 1315 1317 1318 1319 1321 1322 1324 1326 1327 1329 1331 1332 1334 1335 1336 1337 1338
1308 1307 1307 1306 1306 1306 1306 1306 1306 1306 1306 1306 1306 1306 1306 1306 1306 1306 1306 1306 1306 1306 1306 1306 1306 1306 1307 1307 1307 1306 1306 1307 1307 1307 1306 1306 1307 1307 1307 1307 1308 1308 1309 1309 1309 1309 1309 1309 1309 1309 1309 1309 1309 1309 1309 1308 1308 1308 1308 1308 1308 1308 1308 1308 1309 1310 1311 1312 1313 1314 1315 1317 1318 1319 1321 1322 1324 1325 1327 1329 1330 1332 1333 1335 1336 1337
1307 1306 1305 1305 1304 1304 1303 1303 1303 1303 1303 1303 1303 1304 1304 1304 1304 1304 1304 1304 1304 1304 1304 1304 1304 1304 1304 1304 1304 1304 1304 1305 1305 1305 1305 1304 1305 1305 1306 1306 1306 1307 1307 1307 1307 1307 1307 1307 1308 1308 1308 1308 1308 1308 1308 1308 1308 1307 1307 1307 1307 1307 1307 1308 1308 1309 1310 1311 1312 1313 1314 1316 1317 1318 1320 1321 1323 1324 1326 1327 1329 1330 1332 1333 1335 1336
1305 1304 1303 1303 1302 1302 1302 1301 1301 1301 1301 1301 1301 1301 1302 1302 1302 1302 1302 1301 1301 1301 1301 1301 1301 1301 1301 1302 1302 1302 1302 1303 1303 1303 1303 1303 1303 1303 1303 1304 1304 1305 1305 1305 1306 1306 1306 1306 1306 1306 1306 1306 1307 1307 1307 1307 1307 1307 1307 1307 1307 1307 1307 1307 1308 1308 1309 1310 1311 1312 1313 1314 1316 1317 1318 1320 1322 1323 1324 1326 1327 1329 1331 1332 1333 1335
1302 1302 1301 1301 1300 1300 1299 1299 1299 1299 1299 1299 1299 1299 1299 1299 1299 1299 1299 1299 1299 1299 1299 1299 1299 1298 1299 1299 1299 1300 1300 1301 1301 1301 1302 1302 1301 1301 1302 1302 1302 1303 1303 1304 1304 1304 1304 1304 1304 1305 1305 1305 1305 1306 1306 1307 1306 1306 1306 1306 1306 1306 1307 1307 1307 1308 1308 1309 1311 1312 1312 1314 1315 1316 1317 1318 1320 1321 1322 1324 1325 1327 1329 1330 1332 1333
1301 1300 1300 1299 1298 1298 1297 1297 1297 1297 1297 1297 1297 1297 1297 1297 1297 1297 1297 1297 1297 1297 1297 1297 1297 1296 1296 1297 1297 1297 1298 1298 1298 1299 1300 1300 1300 1300 1300 1300 1301 1301 1302 1302 1302 1302 1303 1303 1303 1303 1304 1304 1304 1304 1305 1305 1305 1306 1306 1306 1306 1306 1306 1306 1307 1307 1308 1308 1309 1311 1312 1312 1314 1315 1316 1317 1318 1319 1321 1322 1323 1325 1327 1328 1329 1330
1299 1298 1298 1297 1297 1296 1296 1296 1295 1295 1295 1295 1296 1296 1295 1295 1295 1295 1295 1295 1295 1295 1295 1295 1295 1294 1294 1294 1294 1295 1295 1296 1296 1297 1297 1298 1298 1298 1298 1298 1299 1299 1300 1300 1301 1301 1301 1301 1301 1302 1302 1302 1303 1303 1303 1304 1304 1305 1305 1305 1305 1305 1305 1306 1306 1307 1307 1308 1308 1309 1311 1312 1312 1314 1315 1316 1317 1318 1319 1321 1322 1323 1324 1326 1326 1327
1297 1297 1296 1296 1295 1295 1294 1294 1294 1294 1294 1294 1294 1293 1293 1293 1293 1293 1293 1293 1293 1293 1293 1293 1293 1293 1292 1292 1292 1292 1293 1293 1294 1294 1295 1295 1296 1297 1297 1297 1297 1298 1298 1299 1299 1299 1299 1300 1300 1300 1301 1301 1302 1302 1302 1302 1303 1303 1304 1304 1304 1304 1305 1305 1305 1306 1306 1307 1307 1308 1309 1310 1311 1312 1313 1314 1316 1317 1318 1319 1320 1322 1322 1323 1324 1325
1295 1295 1295 1295 1294 1294 1293 1293 1292 1292 1292 1292 1292 1292 1292 1292 1292 1292 1292 1291 1291 1291 1291 1291 1291 1291 1291 1291 1290 1290 1291 1291 1292 1292 1292 1293 1293 1294 1295 1295 1296 1296 1297 1297 1297 1297 1297 1298 1298 1299 1299 1300 1300 1301 1301 1301 1302 1302 1302 1303 1303 1304 1304 1304 1304 1304 1305 1306 1307 1307 1308 1309 1310 1311 1312 1313 1314 1315 1317 1317 1318 1319 1320 1321 1322 1322
1293 1293 1293 1293 1293 1292 1292 1291 1291 1290 1290 1290 1289 1289 1290 1290 1290 1290 1290 1290 1290 1290 1290 1290 1289 1289 1289 1289 1289 1289 1289 1289 1289 1290 1291 1291 1291 1292 1292 1293 1294 1294 1295 1295 1296 1296 1296 1297 1297 1297 1297 1298 1299 1299 1299 1300 1300 1301 1301 1302 1302 1302 1302 1302 1303 1303 1304 1304 1305 1306 1307 1308 1309 1310 1311 1312 1313 1314 1314 1315 1316 1317 1318 1319 1319 1320
1291 1291 1291 1291 1291 1291 1290 1289 1289 1288 1288 1288 1287 1287 1287 1288 1288 1288 1288 1288 1288 1288 1288 1288 1288 1288 1287 1287 1287 1287 1287 1287 1287 1288 1288 1289 1290 1290 1290 1291 1291 1292 1292 1293 1293 1294 1295 1295 1295 1295 1296 1297 1297 1297 1297 1298 1299 1299 1300 1300 1301 1301 1301 1302 1302 1302 1302 1303 1304 1304 1305 1307 1307 1308 1309 1310 1311 1312 1312 1313 1314 1315 1315 1316 1317 1318
1289 1289 1289 1289 1289 1289 1288 1288 1287 1287 1286 1286 1286 1286 1286 1286 1286 1286 1286 1287 1287 1287 1287 1287 1287 1286 1286 1286 1286 1286 1286 1286 1286 1286 1286 1287 1287 1288 1288 1289 1289 1290 1290 1291 1291 1292 1292 1293 1293 1294 1295 1295 1295 1295 1295 1296 1297 1298 1298 1299 1299 1300 1300 1301 1301 1301 1302 1302 1302 1303 1304 1305 1306 1307 1307 1308 1309 1309 1310 1311 1312 1312 1313 1314 1315 1316
1288 1288 1287 1287 1287 1287 1287 1286 1286 1285 1285 1284 1284 1284 1284 1284 1284 1284 1284 1285 1285 1285 1285 1285 1285 1285 1284 1284 1284 1285 1285 1285 1285 1285 1285 1285 1285 1286 1287 1287 1287 1288 1288 1288 1289 1289 1290 1291 1292 1292 1293 1293 1293 1293 1293 1294 1295 1296 1297 1297 1298 1298 1299 1299 1300 1300 1301 1301 1302 1302 1303 1304 1304 1305 1305 1306 1307 1308 1308 1309 1309 1310 1311 1312 1312 1313
1287 1287 1287 1286 1286 1285 1285 1285 1284 1284 1283 1282 1282 1282 1282 1282 1282 1282 1282 1282 1283 1283 1283 1283 1283 1283 1283 1283 1283 1283 1283 1283 1283 1284 1284 1284 1284 1284 1285 1285 1286 1286 1287 1287 1287 1287 1288 1289 1289 1290 1291 1292 1292 1292 1292 1292 1293 1294 1294 1295 1296 1297 1297 1297 1298 1299 1299 1300 1301 1301 1302 1302 1303 1303 1304 1305 1305 1306 1306 1307 1307 1308 1309 1309 1310 1311
1286 1286 1285 1285 1284 1284 1283 1283 1283 1282 1282 1281 1281 1280 1280 1280 1280 1280 1280 1281 1281 1281 1281 1281 1281 1281 1281 1281 1281 1282 1282 1282 1282 1282 1282 1283 1283 1283 1283 1284 1284 1285 1285 1286 1286 1286 1287 1287 1287 1287 1288 1289 1290 1290 1291 1291 1292 1292 1292 1293 1294 1295 1295 1296 1297 1297 1298 1299 1299 1300 1300 1301 1301 1302 1302 1303 1303 1304 1304 1305 1305 1306 1307 1307 1308 1308
1284 1284 1283 1283 1283 1282 1282 1282 1282 1281 1280 1280 1279 1279 1278 1278 1278 1278 1278 1278 1279 1279 1279 1279 1279 1280 1280 1280 1280 1280 1280 1280 1281 1281 1281 1281 1282 1282 1282 1282 1283 1283 1284 1284 1285 1285 1285 1285 1285 1285 1286 1286 1287 1288 1289 1289 1290 1291 1291 1291 1292 1292 1293 1294 1295 1296 1296 1297 1297 1298 1299 1299 1300 1300 1301 1301 1302 1302 1302 1303 1303 1304 1304 1305 1306 1306
1283 1282 1282 1281 1281 1280 1280 1280 1280 1280 1279 1279 1278 1277 1277 1276 1276 1276 1276 1276 1276 1277 1277 1277 1277 1278 1278 1278 1278 1278 1278 1278 1279 1279 1279 1280 1280 1281 1281 1281 1282 1282 1283 1283 1283 1284 1284 1284 1284 1283 1283 1283 1284 1285 1286 1287 1288 1289 1289 1290 1290 1290 1291 1292 1292 1293 1294 1295 1296 1296 1297 1297 1298 1298 1299 1299 1300 1300 1300 1301 1301 1301 1302 1303 1303 1303